Franz Valley Road CA US PGE current weather conditions

sailwx.info

Wind from 141 at 2 knots gusting 4

Air temperature 13.6° C
Dewpoint 9.1° C

Last reported at 2020-Jan-22 22:00 UTC.
Time now 2020-Jan-22 22:48 UTC

Location: N 38°34' W 122°41'.
View on Google Maps.

See reports from other nearby stations

  
Tides and Currents Weather Stations Pressure Air Temp Water Temp Dewpoint Dewpoint Depression Visibility Wind Speed Wind Dir Waves Ship Positions
date/time (UTC)wind fromknots sea level pressurealtimeterstation pressurevisibilityair tempwater tempwave heightnotes
2020-Jan-22 22:00 141 2 gusting 4 13.6
2020-Jan-22 21:50 186 1 gusting 3 13.3
2020-Jan-22 21:40 220 2 gusting 5 13.3
2020-Jan-22 21:30 191 3 gusting 5 12.8
2020-Jan-22 21:20 223 2 gusting 7 13.0
2020-Jan-22 21:10 358 1 gusting 3 12.6
2020-Jan-22 21:00 011 2 gusting 5 12.5
2020-Jan-22 20:50 020 2 gusting 5 12.4
2020-Jan-22 20:40 018 3 gusting 5 12.6
2020-Jan-22 20:30 285 1 gusting 3 12.6
2020-Jan-22 20:20 356 1 gusting 3 11.9
2020-Jan-22 20:10 014 3 gusting 5 11.2
2020-Jan-22 20:00 019 3 gusting 5 10.6
2020-Jan-22 19:50 015 4 gusting 6 10.3
2020-Jan-22 19:40 008 3 gusting 5 9.9
2020-Jan-22 19:30 005 3 gusting 5 9.6
2020-Jan-22 19:20 022 4 gusting 5 9.4
2020-Jan-22 19:10 010 4 gusting 6 9.5
2020-Jan-22 19:00 007 3 gusting 4 9.3
2020-Jan-22 18:50 010 3 gusting 5 8.9
2020-Jan-22 18:40 018 3 gusting 5 8.6
2020-Jan-22 18:30 026 3 gusting 4 8.7
2020-Jan-22 18:20 194 1 gusting 2 9.0
2020-Jan-22 18:10 204 0 gusting 1 8.4
2020-Jan-22 18:00 219 1 gusting 2 8.4
2020-Jan-22 17:50 010 0 gusting 2 7.9
2020-Jan-22 17:40 350 1 gusting 2 7.5
2020-Jan-22 17:30 353 2 gusting 4 7.2
2020-Jan-22 17:20 003 4 gusting 5 7.1
2020-Jan-22 17:10 001 3 gusting 6 7.0
2020-Jan-22 17:00 001 3 gusting 6 6.9
2020-Jan-22 16:50 007 1 gusting 3 6.7
2020-Jan-22 16:40 356 1 gusting 2 6.5
2020-Jan-22 16:30 008 3 gusting 5 6.5
2020-Jan-22 16:20 007 3 gusting 5 6.4
2020-Jan-22 16:10 002 3 gusting 4 6.3
2020-Jan-22 16:00 009 3 gusting 4 6.3
2020-Jan-22 15:50 010 4 gusting 5 6.2
2020-Jan-22 15:40 010 4 gusting 5 6.1
2020-Jan-22 15:30 017 2 gusting 4 6.2
2020-Jan-22 15:20 018 0 gusting 1 6.4
2020-Jan-22 15:10 052 0 gusting 1 6.5
2020-Jan-22 15:00 036 1 gusting 2 6.7
2020-Jan-22 14:50 028 1 gusting 3 6.9
2020-Jan-22 14:40 014 3 gusting 6 7.0
2020-Jan-22 14:30 023 3 gusting 6 7.1
2020-Jan-22 14:20 036 3 gusting 5 7.0
2020-Jan-22 14:10 023 1 gusting 2 6.9
2020-Jan-22 14:00 020 1 gusting 2 6.8
2020-Jan-22 13:50 008 0 gusting 1 6.9
2020-Jan-22 13:40 6.8
2020-Jan-22 13:30 6.8
2020-Jan-22 13:20 009 1 gusting 1 6.9
2020-Jan-22 13:10 011 0 gusting 2 7.1
2020-Jan-22 13:00 072 0 gusting 1 7.2
2020-Jan-22 12:40 048 0 gusting 1 7.5
2020-Jan-22 12:30 023 0 gusting 1 7.6
2020-Jan-22 12:20 144 0 gusting 0 7.7
2020-Jan-22 12:10 162 0 gusting 2 7.8
2020-Jan-22 12:00 270 0 gusting 1 7.8
2020-Jan-22 11:50 236 1 gusting 3 7.8
2020-Jan-22 11:40 229 0 gusting 1 7.9
2020-Jan-22 11:30 241 0 gusting 2 8.0
2020-Jan-22 11:20 228 0 gusting 1 8.0
2020-Jan-22 11:10 207 0 gusting 1 8.1
2020-Jan-22 11:00 177 0 gusting 1 8.0
2020-Jan-22 10:40 210 0 gusting 2 8.1
2020-Jan-22 10:30 249 0 gusting 1 8.2
2020-Jan-22 10:00 185 0 gusting 2 8.3
2020-Jan-22 09:50 228 0 gusting 1 8.4
2020-Jan-22 09:40 198 0 gusting 2 8.5
2020-Jan-22 09:30 167 0 gusting 1 8.5
2020-Jan-22 09:20 149 0 gusting 0 8.5
2020-Jan-22 09:10 224 0 gusting 1 8.5
2020-Jan-22 09:00 234 0 gusting 0 8.5
2020-Jan-22 08:50 187 0 gusting 1 8.5
2020-Jan-22 08:40 210 0 gusting 1 8.5
2020-Jan-22 08:30 188 1 gusting 2 8.6
2020-Jan-22 08:20 181 1 gusting 2 8.7
2020-Jan-22 08:10 174 0 gusting 1 8.7
2020-Jan-22 08:00 187 0 gusting 1 8.7
2020-Jan-22 07:50 202 1 gusting 1 8.7
2020-Jan-22 07:40 213 0 gusting 1 8.8
2020-Jan-22 07:30 214 0 gusting 1 8.8
2020-Jan-22 07:10 219 1 gusting 3 8.8
2020-Jan-22 07:00 213 1 gusting 3 8.9
2020-Jan-22 06:50 198 2 gusting 2 9.0
2020-Jan-22 06:40 204 2 gusting 3 9.0
2020-Jan-22 06:30 214 2 gusting 4 9.0
2020-Jan-22 06:20 208 3 gusting 4 9.1
2020-Jan-22 06:10 200 3 gusting 4 9.1
2020-Jan-22 06:00 194 2 gusting 3 9.1
2020-Jan-22 05:50 188 2 gusting 4 9.1
2020-Jan-22 05:40 194 3 gusting 6 9.1
2020-Jan-22 05:30 196 3 gusting 4 9.1
2020-Jan-22 05:20 210 2 gusting 3 9.2
2020-Jan-22 05:10 207 2 gusting 4 9.2
2020-Jan-22 05:00 202 2 gusting 4 9.2
2020-Jan-22 04:50 215 3 gusting 4 9.3
2020-Jan-22 04:40 204 3 gusting 4 9.3
2020-Jan-22 04:30 199 3 gusting 4 9.4
2020-Jan-22 04:20 185 3 gusting 5 9.4
2020-Jan-22 04:10 202 3 gusting 4 9.4
2020-Jan-22 04:00 202 3 gusting 4 9.5
2020-Jan-22 03:50 191 3 gusting 4 9.5
2020-Jan-22 03:40 201 4 gusting 6 9.5
2020-Jan-22 03:30 204 4 gusting 6 9.5
2020-Jan-22 03:20 205 5 gusting 7 9.5
2020-Jan-22 03:10 202 4 gusting 6 9.6
2020-Jan-22 03:00 205 3 gusting 4 9.6
2020-Jan-22 02:50 193 4 gusting 7 9.7
2020-Jan-22 02:40 197 6 gusting 13 9.7
2020-Jan-22 02:30 207 6 gusting 11 10.0
2020-Jan-22 02:20 188 5 gusting 8 10.1
2020-Jan-22 02:10 182 5 gusting 9 10.1
2020-Jan-22 02:00 182 6 gusting 10 10.1
2020-Jan-22 01:50 182 6 gusting 12 10.1
2020-Jan-22 01:40 177 5 gusting 9 10.1
2020-Jan-22 01:30 175 5 gusting 8 10.1
2020-Jan-22 01:20 174 5 gusting 11 10.1
2020-Jan-22 01:10 175 5 gusting 10 10.1
2020-Jan-22 01:00 174 5 gusting 9 10.1
2020-Jan-22 00:40 192 6 gusting 10 10.2
2020-Jan-22 00:30 186 7 gusting 12 10.1
2020-Jan-22 00:20 184 8 gusting 12 10.1
2020-Jan-22 00:10 180 8 gusting 13 10.1
2020-Jan-22 00:00 181 9 gusting 14 10.1
2020-Jan-21 23:50 183 7 gusting 13 10.1
2020-Jan-21 23:40 181 8 gusting 13 10.1
2020-Jan-21 23:30 180 8 gusting 12 10.1
2020-Jan-21 23:10 182 9 gusting 17 10.1
2020-Jan-21 23:00 181 12 gusting 16 10.1
2020-Jan-21 22:50 182 11 gusting 16 10.1
2020-Jan-21 22:40 184 10 gusting 17 10.1
2020-Jan-21 22:30 181 11 gusting 17 10.1
2020-Jan-21 22:20 181 13 gusting 23 10.1
2020-Jan-21 22:10 180 14 gusting 24 10.1
2020-Jan-21 22:00 179 13 gusting 22 10.1
2020-Jan-21 21:50 181 13 gusting 21 10.1
2020-Jan-21 21:40 179 13 gusting 20 10.1
2020-Jan-21 21:30 179 13 gusting 20 10.0
2020-Jan-21 21:10 179 10 gusting 16 9.9
2020-Jan-21 21:00 181 11 gusting 17 9.9
2020-Jan-21 20:50 179 12 gusting 18 9.8
2020-Jan-21 20:40 179 11 gusting 18 9.7
2020-Jan-21 20:30 183 11 gusting 15 9.6
2020-Jan-21 20:20 182 11 gusting 17 9.6
2020-Jan-21 20:10 180 11 gusting 17 9.5
2020-Jan-21 20:00 180 11 gusting 20 9.5
2020-Jan-21 19:50 179 11 gusting 17 9.3
2020-Jan-21 19:40 179 11 gusting 18 9.2
2020-Jan-21 19:30 180 11 gusting 18 9.1
2020-Jan-21 19:20 182 9 gusting 14 9.1
2020-Jan-21 19:10 180 10 gusting 15 9.0
2020-Jan-21 19:00 177 10 gusting 16 9.0
2020-Jan-21 18:50 178 10 gusting 15 8.9
2020-Jan-21 18:40 178 9 gusting 15 8.9
2020-Jan-21 18:30 178 9 gusting 14 8.9
2020-Jan-21 18:20 180 11 gusting 17 8.9
2020-Jan-21 18:00 180 10 gusting 16 8.9
2020-Jan-21 17:50 180 9 gusting 15 8.9
2020-Jan-21 17:40 177 9 gusting 15 8.8
2020-Jan-21 17:30 178 9 gusting 16 8.7
2020-Jan-21 17:20 180 9 gusting 14 8.6
2020-Jan-21 17:10 183 8 gusting 13 8.6
2020-Jan-21 17:00 182 8 gusting 13 8.5
2020-Jan-21 16:50 187 6 gusting 10 8.5
2020-Jan-21 16:40 184 8 gusting 12 8.4
2020-Jan-21 16:30 179 7 gusting 12 8.4
2020-Jan-21 16:10 180 7 gusting 11 8.2
2020-Jan-21 16:00 179 6 gusting 9 8.2
2020-Jan-21 15:50 177 6 gusting 9 8.2
2020-Jan-21 15:40 176 5 gusting 9 8.2
2020-Jan-21 15:30 175 5 gusting 9 8.1
2020-Jan-21 15:20 173 3 gusting 7 8.1
2020-Jan-21 15:10 166 4 gusting 8 8.1
2020-Jan-21 15:00 165 3 gusting 7 8.1
2020-Jan-21 14:50 172 4 gusting 7 8.1
2020-Jan-21 14:40 173 4 gusting 8 8.1
2020-Jan-21 14:30 179 5 gusting 9 8.1
2020-Jan-21 14:20 185 5 gusting 9 8.0
2020-Jan-21 14:10 181 6 gusting 11 8.1
2020-Jan-21 14:00 173 4 gusting 8 8.0
2020-Jan-21 13:50 169 3 gusting 7 8.0
2020-Jan-21 13:40 181 4 gusting 6 8.1
2020-Jan-21 13:30 182 4 gusting 8 8.1
2020-Jan-21 13:20 171 4 gusting 8 8.2
2020-Jan-21 13:10 166 3 gusting 7 8.2
2020-Jan-21 13:00 170 1 gusting 4 8.2
2020-Jan-21 12:50 165 2 gusting 6 8.2
2020-Jan-21 12:40 159 2 gusting 6 8.5
2020-Jan-21 12:30 168 2 gusting 5 8.7
2020-Jan-21 12:20 159 1 gusting 4 8.8
2020-Jan-21 12:10 168 2 gusting 5 8.9
2020-Jan-21 12:00 161 2 gusting 5 9.0
2020-Jan-21 11:50 159 2 gusting 8 9.0
2020-Jan-21 11:40 169 2 gusting 5 8.9
2020-Jan-21 11:30 166 2 gusting 6 8.8
2020-Jan-21 11:20 173 3 gusting 6 8.8
2020-Jan-21 11:10 176 4 gusting 7 8.9
2020-Jan-21 11:00 163 3 gusting 8 8.9
2020-Jan-21 10:50 167 4 gusting 8 8.8
2020-Jan-21 10:40 172 3 gusting 7 8.8
2020-Jan-21 10:30 170 3 gusting 7 8.8
2020-Jan-21 10:20 173 3 gusting 6 8.7
2020-Jan-21 10:10 170 3 gusting 6 8.8
2020-Jan-21 10:00 174 3 gusting 6 8.7
2020-Jan-21 09:50 173 3 gusting 5 8.7
2020-Jan-21 09:40 173 3 gusting 5 8.7
2020-Jan-21 09:30 173 3 gusting 6 8.7
2020-Jan-21 09:20 170 3 gusting 6 8.7
2020-Jan-21 09:10 170 3 gusting 6 8.7
2020-Jan-21 09:00 167 3 gusting 7 8.6
2020-Jan-21 08:50 168 3 gusting 6 8.5
2020-Jan-21 08:40 164 1 gusting 5 8.3
2020-Jan-21 08:30 163 0 gusting 2 8.1
2020-Jan-21 08:20 148 0 gusting 1 7.8
2020-Jan-21 08:10 038 0 gusting 0 7.7
2020-Jan-21 08:00 003 0 gusting 0 7.9
2020-Jan-21 07:50 016 0 gusting 2 8.1
2020-Jan-21 07:40 171 1 gusting 3 8.2
2020-Jan-21 07:30 166 1 gusting 3 8.2
2020-Jan-21 07:20 175 1 gusting 3 8.4
2020-Jan-21 07:10 149 0 gusting 2 8.4
2020-Jan-21 07:00 156 1 gusting 3 8.2
2020-Jan-21 06:50 042 0 gusting 2 7.9
2020-Jan-21 06:40 097 0 gusting 1 7.9
2020-Jan-21 06:30 008 0 gusting 1 7.2
2020-Jan-21 06:20 006 1 gusting 2 6.9
2020-Jan-21 06:10 004 1 gusting 1 6.9
2020-Jan-21 06:00 010 1 gusting 1 7.0
2020-Jan-21 05:50 011 0 gusting 2 6.6
2020-Jan-21 05:40 009 1 gusting 1 6.5
2020-Jan-21 05:30 002 1 gusting 2 6.8
2020-Jan-21 05:20 023 1 gusting 2 6.7
2020-Jan-21 05:10 013 0 gusting 1 7.2
2020-Jan-21 05:00 173 0 gusting 2 7.5
2020-Jan-21 04:50 180 0 gusting 2 7.0
2020-Jan-21 04:40 014 0 gusting 1 6.9
2020-Jan-21 04:30 052 0 gusting 1 7.6
2020-Jan-21 04:10 321 0 gusting 1 8.0
2020-Jan-21 04:00 047 2 gusting 3 9.1
2020-Jan-21 03:50 059 2 gusting 3 9.1
2020-Jan-21 03:40 075 1 gusting 2 9.0
2020-Jan-21 03:30 060 1 gusting 3 8.9
2020-Jan-21 03:20 074 1 gusting 2 8.8
2020-Jan-21 03:10 096 1 gusting 2 8.7
2020-Jan-21 03:00 096 0 gusting 2 8.0
2020-Jan-21 02:50 013 1 gusting 1 7.6
2020-Jan-21 02:40 018 0 gusting 1 8.0
2020-Jan-21 02:30 098 0 gusting 1 8.2
2020-Jan-21 02:20 065 0 gusting 0 8.5
2020-Jan-21 02:10 083 0 gusting 1 8.7
2020-Jan-21 02:00 027 1 gusting 1 8.7
2020-Jan-21 01:50 030 0 gusting 1 8.6
2020-Jan-21 01:40 003 0 gusting 1 8.8
2020-Jan-21 01:30 020 0 gusting 1 9.4
2020-Jan-21 01:20 107 0 gusting 1 10.0
2020-Jan-21 01:10 185 1 gusting 3 10.3
2020-Jan-21 01:00 199 2 gusting 3 10.8
2020-Jan-21 00:50 182 2 gusting 4 11.0
2020-Jan-21 00:40 106 0 gusting 1 11.1
2020-Jan-21 00:30 189 1 gusting 3 10.9
2020-Jan-21 00:20 206 2 gusting 4 11.0
2020-Jan-21 00:10 225 1 gusting 4 10.9
2020-Jan-21 00:00 218 2 gusting 4 10.4
2020-Jan-20 23:50 206 2 gusting 3 10.2
2020-Jan-20 23:40 205 1 gusting 3 10.0
2020-Jan-20 23:30 195 1 gusting 2 10.1
2020-Jan-20 23:20 209 1 gusting 2 10.2
2020-Jan-20 23:10 240 1 gusting 3 10.2
2020-Jan-20 23:00 219 1 gusting 2 10.3
2020-Jan-20 22:50 215 1 gusting 3 10.3
2020-Jan-20 22:40 212 1 gusting 3 10.2
2020-Jan-20 22:30 204 1 gusting 2 10.1
2020-Jan-20 22:20 213 1 gusting 2 10.2
2020-Jan-20 22:10 196 1 gusting 2 10.1
2020-Jan-20 22:00 170 1 gusting 3 9.6